[[{"header":{"parameterUnit":"m.s-1","parameterCategory":1,"la1":30.2991,"la2":30.254,"lo1":-89.0895,"lo2":-89.0444,"dy":0.0017,"dx":0.0017,"nx":28,"ny":28,"refTime":"2024-03-13T21:00:00:Z","depth":0,"parameterNumber":2,"parameterNumberName":"U-component_of_WINDS"},"data":[0,0,0,0,0,0,0,0,0,0,0,0,0,0,0,0,0,0,0,0,0,0,0,0,0,0,0,0,0,0,0,0,0,0,0,0,0,0,0,0,0,0,0,0,0,0,0,0,0,0,0,0,0,0,0,0,0,0,-2.0041,-2.0041,0,-2.0034,-2.0034,-2.0034,-1.9992,-1.9991,-1.999,-1.9989,-1.9981,-1.9982,-1.9983,0,0,0,0,0,0,0,0,0,0,0,0,0,-2.002,-2.002,-2.0041,-2.0041,-2.0041,-2.0034,-2.0034,-2.0034,-1.9992,-1.9991,-1.9989,-1.9988,-1.9981,-1.9982,-1.9983,0,0,0,0,0,0,0,0,0,0,0,0,0,-2.0023,-2.0021,-2.0041,-2.0019,-2.0017,-2.0034,-2.0034,-2.0034,-1.9992,-1.999,-1.9989,-1.9988,-1.9981,-1.9982,-1.9983,-2.0021,0,0,-1.9987,-1.9987,0,0,0,0,0,0,0,0,-2.0022,-2.0023,-2.0023,-2.0021,-2.0019,-2.0012,-2.0024,-2.0029,-1.9992,-2.0002,-1.9989,-1.9987,-1.9993,-1.9993,-1.9995,-2.002,-2.002,-1.9987,-1.9987,-1.9988,-1.9988,0,0,0,0,0,0,0,-2.0022,-2.0023,-2.0038,-2.0023,-2.002,-2.001,-2.0009,-2.0025,-2.0006,-2.0001,-1.9998,-1.9997,-1.9991,-1.9994,-1.9994,-2.002,-1.9987,-1.9988,-1.9988,-1.9989,-2.0076,-2.0078,0,0,0,0,0,0,-2.0025,-2.0024,-2.0039,-2.0038,-2.0017,-2.0012,-2.001,-2.0016,-2.0006,-2.0003,-1.9999,-1.9995,-1.9993,-1.9993,-1.9994,-2.0037,-1.9988,-1.9989,-1.999,-2.0074,-2.0076,-2.0078,0,0,0,0,0,0,-2.0025,-2.0027,-2.0039,-2.003,-2.0031,-2.0014,-2.002,-2.0016,-2.0019,-2.0004,-2.0001,-2.0004,-1.9992,-1.9992,-2.0014,-2.0036,-1.9989,-1.999,-2.0072,-2.0075,-2.0077,-2.0123,0,0,0,0,0,0,-2.0024,-2.0027,-2.0041,-2.0031,-2.0031,-2.0059,-2.0022,-2.0017,-2.0021,-2.0016,-2.0009,-2.0006,-1.999,-2.0013,-2.0016,-2.0037,-1.9991,-2.007,-2.0074,-2.0076,-2.012,-2.0127,-2.0133,0,0,0,0,0,-2.0024,-2.0054,-2.0042,-2.0044,-2.0048,-2.006,-2.0061,-2.0042,-2.0023,-2.0036,-2.0027,-2.0006,-2.0034,-2.0016,-2.0018,-2.004,-2.0069,-2.0073,-2.0076,-2.0117,-2.0125,-2.0133,0,0,0,0,0,0,-2.0066,-2.0052,-2.0038,-2.0066,-2.0065,-2.0053,-2.007,-2.0052,-2.0057,-2.0052,-2.003,-2.0028,-2.0054,-2.0049,-2.0029,-2.0076,-2.0048,-2.0052,-2.0078,-2.0086,-2.0093,-2.0092,-1.9992,0,0,0,0,0,-2.0079,-2.009,-2.0077,-2.0103,-2.0103,-2.0087,-2.0092,-2.0078,-2.0075,-2.0075,-2.0067,-2.0066,-2.0074,-2.008,-2.0087,-2.012,-2.0117,-2.0136,-2.0143,-2.0148,-2.0152,-2.0169,-2.0177,-2.009,-2.009,-2.009,0,0,-2.0105,-2.0099,-2.0107,-2.0111,-2.0109,-2.0121,-2.0087,-2.0101,-2.0109,-2.0077,-2.0096,-2.0091,-2.0089,-2.0116,-2.0128,-2.0113,-2.0176,-2.0153,-2.0158,-2.0158,-2.0173,-2.0182,-2.0189,-2.0093,-2.0092,-2.0092,0,0,-2.0159,-2.0155,-2.0176,-2.0175,-2.0171,-2.0161,-2.0166,-2.0158,-2.0153,-2.0172,-2.0148,-2.0159,-2.0174,-2.0173,-2.0174,-2.023,-2.021,-2.0233,-2.0267,-2.0284,-2.0291,-2.0297,-2.0315,-2.0323,-2.0237,-2.0237,-2.0237,0,-2.0191,-2.0208,-2.0189,-2.0205,-2.0208,-2.018,-2.0201,-2.02,-2.02,-2.0202,-2.0186,-2.0205,-2.0201,-2.0228,-2.0241,-2.0244,-2.0249,-2.0232,-2.0291,-2.0297,-2.0302,-2.032,-2.0327,-2.024,-2.0239,-2.0239,-2.0239,0,-2.0249,-2.0261,-2.0278,-2.0278,-2.0283,-2.0302,-2.0286,-2.0293,-2.028,-2.0271,-2.0292,-2.0287,-2.0292,-2.0298,-2.0285,-2.0323,-2.0314,-2.0295,-2.0266,-2.0313,-2.033,-2.0336,-2.0243,-2.0242,-2.0242,-2.0241,0,0,-2.0326,-2.0317,-2.0324,-2.0323,-2.0319,-2.0328,-2.0346,-2.0351,-2.0358,-2.0359,-2.0373,-2.0387,-2.037,-2.0372,-2.0359,-2.0373,-2.0417,-2.0353,-2.0352,-2.0364,-2.0458,-2.0471,-2.0479,-2.0405,-2.0406,-2.0407,-2.0458,0,-2.0377,-2.0406,-2.039,-2.0421,-2.0432,-2.0407,-2.0422,-2.0421,-2.0414,-2.0423,-2.0415,-2.0425,-2.0402,-2.0403,-2.0417,-2.0408,-2.0435,-2.0405,-2.0417,-2.0418,-2.0416,-2.0488,-2.0501,-2.0549,-2.0464,-2.0465,-2.0466,0,-2.0439,-2.0443,-2.0475,-2.0469,-2.0473,-2.0487,-2.0491,-2.05,-2.0498,-2.0492,-2.0495,-2.0479,-2.0496,-2.0469,-2.0492,-2.0472,-2.0477,-2.0474,-2.0475,-2.0474,-2.0443,-2.0487,-2.0564,-2.0571,-2.0476,-2.0475,-2.0474,0,-2.0491,-2.0505,-2.0526,-2.0527,-2.052,-2.053,-2.0528,-2.0526,-2.053,-2.0534,-2.0537,-2.0543,-2.0546,-2.0552,-2.0537,-2.0519,-2.0563,-2.0534,-2.0557,-2.0558,-2.0566,-2.0565,-2.0643,-2.0572,-2.0572,-2.0572,-2.0571,0,-2.0548,-2.0568,-2.0549,-2.0562,-2.0584,-2.0567,-2.059,-2.0585,-2.0583,-2.0595,-2.0574,-2.0585,-2.0567,-2.0576,-2.0566,-2.0586,-2.0588,-2.0584,-2.058,-2.0584,-2.0585,-2.0585,-2.0581,-2.0573,-2.0573,-2.0573,-2.0572,0,-2.0609,-2.0597,-2.0618,-2.0611,-2.0609,-2.0626,-2.062,-2.0632,-2.0624,-2.0639,-2.0641,-2.0629,-2.064,-2.0627,-2.0636,-2.0629,-2.0657,-2.0649,-2.0657,-2.0654,-2.0677,-2.0675,-2.0757,-2.0767,-2.0691,-2.0691,-2.0692,0,-2.0645,-2.066,-2.0655,-2.0661,-2.066,-2.0671,-2.0675,-2.0659,-2.0665,-2.0666,-2.0677,-2.0686,-2.0692,-2.071,-2.0702,-2.0709,-2.0701,-2.0729,-2.0702,-2.0705,-2.07,-2.0698,-2.0699,-2.0734,-2.0735,-2.0736,-2.0737,0,-2.071,-2.0703,-2.0711,-2.0717,-2.0723,-2.0727,-2.0729,-2.0736,-2.0719,-2.0727,-2.0738,-2.0742,-2.0752,-2.0761,-2.0766,-2.0764,-2.0748,-2.0746,-2.0751,-2.0755,-2.0758,-2.0755,-2.067,-2.0743,-2.0743,-2.0742,-2.0742,-2.0741,-2.0758,-2.0771,-2.0769,-2.0778,-2.0779,-2.0782,-2.0792,-2.0786,-2.0795,-2.0801,-2.0792,-2.0805,-2.0804,-2.0809,-2.081,-2.082,-2.0807,-2.0816,-2.0817,-2.0819,-2.0822,-2.0758,-2.0821,-2.0821,-2.082,-2.082,-2.082,0,-2.0821,-2.0819,-2.0828,-2.0832,-2.084,-2.0824,-2.0827,-2.0834,-2.0845,-2.0846,-2.0853,-2.0865,-2.0874,-2.0868,-2.0875,-2.0884,-2.0877,-2.0887,-2.0885,-2.0885,-2.0833,-2.0827,-2.0893,-2.0893,-2.0893,-2.0893,-2.0893,-2.0893,-2.0854,-2.0874,-2.0868,-2.0888,-2.0886,-2.0899,-2.0902,-2.0904,-2.0905,-2.092,-2.0927,-2.0923,-2.0921,-2.0928,-2.0936,-2.0933,-2.0937,-2.0949,-2.0944,-2.0896,-2.0888,-2.0881,-2.0875,-2.095,-2.095,-2.0994,-2.0995,-2.0995]},{"header":{"parameterUnit":"m.s-1","parameterCategory":1,"la1":30.2991,"la2":30.254,"lo1":-89.0895,"lo2":-89.0444,"dy":0.0017,"dx":0.0017,"nx":28,"ny":28,"refTime":"2024-03-13T21:00:00:Z","depth":0,"parameterNumber":3,"parameterNumberName":"V-component_of_WINDS"},"data":[0,0,0,0,0,0,0,0,0,0,0,0,0,0,0,0,0,0,0,0,0,0,0,0,0,0,0,0,0,0,0,0,0,0,0,0,0,0,0,0,0,0,0,0,0,0,0,0,0,0,0,0,0,0,0,0,0,0,1.5374,1.5374,0,1.5396,1.5396,1.5396,1.5431,1.5431,1.5432,1.5432,1.5451,1.5451,1.5451,0,0,0,0,0,0,0,0,0,0,0,0,0,1.5359,1.5359,1.5374,1.5374,1.5374,1.5396,1.5396,1.5396,1.543,1.5431,1.5432,1.5433,1.5451,1.5451,1.5451,0,0,0,0,0,0,0,0,0,0,0,0,0,1.5371,1.5359,1.5374,1.5394,1.5396,1.5396,1.5396,1.5397,1.543,1.5431,1.5432,1.5433,1.5451,1.5451,1.5451,1.5432,0,0,1.5451,1.5451,0,0,0,0,0,0,0,0,1.5371,1.5372,1.5391,1.5393,1.5395,1.5412,1.5398,1.5408,1.543,1.5417,1.5432,1.5434,1.5437,1.5438,1.544,1.5433,1.5434,1.5451,1.5451,1.5451,1.5451,0,0,0,0,0,0,0,1.537,1.5371,1.5382,1.5391,1.5394,1.5401,1.5404,1.54,1.5421,1.5418,1.5421,1.5423,1.5438,1.544,1.5441,1.5434,1.5451,1.5451,1.5451,1.5451,1.5413,1.5412,0,0,0,0,0,0,1.5366,1.537,1.5382,1.5383,1.5385,1.5401,1.5404,1.5405,1.5422,1.5425,1.5422,1.5425,1.544,1.5441,1.5442,1.5422,1.5451,1.5451,1.5451,1.5414,1.5413,1.5412,0,0,0,0,0,0,1.5366,1.5367,1.5381,1.5377,1.538,1.54,1.5401,1.5405,1.5407,1.5425,1.5429,1.5421,1.5441,1.5442,1.5435,1.5423,1.5451,1.545,1.5415,1.5414,1.5413,1.538,0,0,0,0,0,0,1.5365,1.5367,1.536,1.5377,1.538,1.5374,1.54,1.5405,1.5407,1.541,1.5424,1.5427,1.5442,1.5435,1.5435,1.5423,1.545,1.5416,1.5415,1.5413,1.5382,1.5378,1.5374,0,0,0,0,0,1.5365,1.5349,1.5359,1.5361,1.5372,1.5373,1.5375,1.5393,1.5406,1.5399,1.5411,1.5427,1.5424,1.5434,1.5434,1.5422,1.5417,1.5415,1.5413,1.5384,1.5379,1.5374,0,0,0,0,0,0,1.5328,1.5351,1.5363,1.5353,1.5361,1.5379,1.5371,1.5386,1.539,1.5392,1.5414,1.5416,1.5407,1.5413,1.5424,1.5405,1.5423,1.5421,1.5401,1.5396,1.5392,1.539,1.545,0,0,0,0,0,1.5319,1.5319,1.5339,1.5327,1.5331,1.535,1.5351,1.5365,1.5374,1.5377,1.5388,1.5395,1.5396,1.5396,1.5398,1.5383,1.5387,1.5375,1.5371,1.5367,1.5365,1.536,1.5355,1.5405,1.5405,1.5405,0,0,1.5299,1.5312,1.531,1.532,1.5328,1.5328,1.5353,1.535,1.535,1.5376,1.5371,1.5379,1.5389,1.5378,1.5374,1.5384,1.5353,1.5365,1.5362,1.5362,1.5357,1.5352,1.5348,1.5404,1.5404,1.5404,0,0,1.5264,1.5273,1.5266,1.5274,1.5286,1.53,1.5298,1.5314,1.5321,1.5317,1.5337,1.5336,1.5337,1.5343,1.5347,1.5316,1.5331,1.5315,1.5293,1.5287,1.5284,1.528,1.527,1.5266,1.5313,1.5313,1.5313,0,1.5238,1.5239,1.5259,1.5257,1.5261,1.5286,1.5279,1.5285,1.5297,1.5299,1.5309,1.5313,1.532,1.5313,1.5305,1.5307,1.5306,1.5314,1.5283,1.5279,1.5277,1.5267,1.5263,1.5311,1.5312,1.5312,1.5312,0,1.5207,1.5207,1.5199,1.5212,1.5215,1.5209,1.5229,1.523,1.5243,1.5255,1.525,1.5261,1.5266,1.5265,1.5277,1.526,1.5265,1.5279,1.5298,1.527,1.5261,1.5258,1.5309,1.5309,1.531,1.531,0,0,1.5148,1.5174,1.5171,1.5178,1.5194,1.5195,1.519,1.5197,1.5198,1.5205,1.5202,1.5203,1.5217,1.5221,1.5234,1.5228,1.5205,1.5243,1.5243,1.5236,1.5187,1.5178,1.5173,1.5215,1.5214,1.5214,1.5187,0,1.5117,1.5113,1.5132,1.5123,1.5124,1.5149,1.5145,1.5155,1.5166,1.5168,1.518,1.5181,1.5198,1.5201,1.5196,1.5209,1.5195,1.5211,1.5213,1.5212,1.521,1.5169,1.5158,1.5132,1.5184,1.5183,1.5183,0,1.5079,1.5087,1.5079,1.5097,1.5098,1.5095,1.5104,1.5105,1.5116,1.5125,1.513,1.5146,1.5143,1.5161,1.5158,1.5168,1.517,1.5176,1.5175,1.5177,1.5196,1.517,1.5124,1.5121,1.5177,1.5178,1.5178,0,1.5039,1.5047,1.5044,1.5048,1.507,1.5067,1.5076,1.5088,1.5091,1.5098,1.5101,1.5107,1.511,1.5114,1.5131,1.5142,1.5126,1.5145,1.5133,1.5133,1.5129,1.5129,1.5084,1.5129,1.5129,1.5129,1.5129,0,1.5003,1.4997,1.5026,1.5024,1.5018,1.504,1.5034,1.5044,1.5056,1.5056,1.5077,1.5076,1.5098,1.51,1.5113,1.5109,1.511,1.5117,1.5121,1.5116,1.5115,1.5118,1.512,1.5128,1.5128,1.5128,1.5128,0,1.4957,1.4976,1.4974,1.4995,1.5001,1.4995,1.5013,1.5012,1.5025,1.5025,1.5026,1.5046,1.505,1.5067,1.5074,1.5083,1.5075,1.5081,1.5071,1.5074,1.5062,1.5063,1.5017,1.5013,1.5059,1.5059,1.5058,0,1.4933,1.4929,1.495,1.4953,1.4961,1.4964,1.4968,1.499,1.4993,1.5007,1.5004,1.501,1.5015,1.502,1.5034,1.504,1.5048,1.5031,1.5049,1.5044,1.5049,1.5049,1.505,1.5028,1.5027,1.5027,1.5026,0,1.4888,1.4899,1.4905,1.4914,1.4919,1.4927,1.4936,1.4937,1.4961,1.4963,1.4968,1.4973,1.4981,1.4987,1.4995,1.5003,1.5019,1.5021,1.5019,1.5014,1.5009,1.5013,1.5062,1.5022,1.5022,1.5023,1.5023,1.5023,1.4854,1.4852,1.4868,1.4874,1.4883,1.4892,1.4893,1.4907,1.4911,1.4921,1.4933,1.4937,1.4949,1.4963,1.497,1.4972,1.4981,1.4977,1.4977,1.4976,1.4974,1.5008,1.4974,1.4974,1.4974,1.4974,1.4974,0,1.4811,1.4823,1.4828,1.4842,1.4847,1.4863,1.4874,1.4877,1.488,1.4891,1.4897,1.4903,1.4909,1.4925,1.4932,1.4931,1.4939,1.4932,1.4933,1.4935,1.4965,1.4967,1.4926,1.4926,1.4926,1.4926,1.4926,1.4926,1.479,1.4789,1.4801,1.4806,1.4817,1.4822,1.4827,1.4835,1.4845,1.4851,1.4856,1.4867,1.488,1.4889,1.4895,1.49,1.4902,1.4893,1.49,1.4928,1.4932,1.4937,1.4939,1.4893,1.4893,1.487,1.487,1.487]}]]